Flag for Angola Weather past 2 weeks in Lubango, Angola

Now
77 °F

Warm.


Feels Like: 79 °F
Forecast: 58 / 72 °F
Wind: 10 mph from Northeast

Location: Ondangwa


UV Index: 7 (High)

Visibility: N/A


Pressure: 30.15 "Hg

Humidity: 51%

Dew point: 57 °F

Location of LubangoLocation

Historic Weather in Lubango

°F

Lubango temperature yesterday

Maximum temperature yesterday: 82 °F (at 12:00 PM)
Minimum temperature yesterday: 63 °F (at 6:00 AM)
Average temperature yesterday: 73 °F

Past Weeks' High & Low Weather Summary

 TemperatureHumidityPressure
High90 °F (Apr 6, 2:00 PM)94% (Apr 12, 2:00 AM)30.18 "Hg (Apr 12, 2:00 AM)
Low59 °F (Apr 11, 6:00 AM)25% (Apr 16, 4:00 PM)29.98 "Hg (Apr 6, 2:00 PM)
Average73 °F64%30.08 "Hg
* Reported Apr 5 9:00 AM — Apr 20 9:00 AM, Lubango, Weather by CustomWeather, © 2014

Note: Actual official high and low records may vary slightly from our data, if they occured in-between our weather recording intervals... More about our weather records

Advertising

Historic Weather Conditions — Data for Previous 24 hours

 ConditionsComfort  
Time TempWeatherWind HumidityBarometerVisibility
9:00 AM
Apr 20
73 °FMild.10 mph53%30.15 "HgN/A
8:00 AM70 °FMild.7 mph60%30.15 "HgN/A
7:00 AM68 °FScattered clouds.5 mph64%30.15 "HgN/A
6:00 AM68 °FPassing clouds.5 mph64%30.12 "HgN/A
5:00 AM68 °FMild.5 mph64%30.09 "HgN/A
4:00 AM70 °FMild.6 mph60%30.09 "HgN/A
3:00 AM68 °FMild.3 mph64%30.09 "HgN/A
2:00 AM68 °FMild.5 mph64%30.09 "HgN/A
1:00 AM68 °FMild.3 mph69%30.09 "HgN/A
12:00 AM68 °FMild.3 mph69%30.12 "HgN/A
11:00 PM
Apr 19
70 °FMild.5 mph64%30.12 "HgN/A
10:00 PM72 °FMild.3 mph61%30.12 "HgN/A
9:00 PM70 °FMild.3 mph64%30.12 "HgN/A
8:00 PM72 °FMild.5 mph61%30.09 "HgN/A
7:00 PM72 °FClear.3 mph61%30.09 "Hg10 mi
6:00 PM75 °FMild.3 mph54%30.07 "HgN/A
5:00 PM79 °FWarm.3 mph45%30.07 "HgN/A
4:00 PM81 °FWarm.6 mph42%30.07 "HgN/A
3:00 PM82 °FPleasantly warm.3 mph37%30.07 "HgN/A
2:00 PM82 °FPleasantly warm.5 mph37%30.07 "HgN/A
1:00 PM82 °FScattered clouds.7 mph40%30.09 "HgN/A
12:00 PM82 °FSunny.10 mph37%30.12 "Hg10 mi
11:00 AM79 °FSunny.12 mph42%30.15 "Hg10 mi
10:00 AM79 °FWarm.12 mph42%30.15 "HgN/A
Weather by CustomWeather, © 2014

See weather overview